#timestamp,LO_Frequency,Hit 
1499727615.0,286047088.7,N
1499727615.9,286047088.7,N
1499727635.8,286047087.3,N
1499727655.6,286047087.0,N
1499727675.4,286047087.4,N
1499727695.3,286047086.1,N
1499727715.1,286047084.9,N
1499727716.0,286047084.9,N
1499727735.8,286047087.4,N
1499727755.7,286047088.0,N
1499727775.5,286047087.3,N
1499727795.3,286047085.3,N
1499727815.1,286047087.2,N
1499727835.9,286047087.0,N
1499727855.7,286047087.5,N
1499727875.5,286047085.3,N
1499727895.4,286047087.2,N
1499727915.2,286047084.6,N
1499727935.0,286047085.1,N
1499727935.9,286047085.1,N
1499727955.8,286047083.3,N
1499727975.6,286047088.8,N
1499727995.4,286047089.1,N
1499728015.3,286047089.0,N
1499728035.1,286047088.6,N
1499728036.0,286047088.6,N
1499728055.8,286047088.0,N
1499728075.7,286047088.8,N
1499728095.5,286047086.2,N
1499728115.3,286047089.0,N
1499728135.2,286047088.3,N
1499728155.9,286047088.8,N
1499728175.7,286047087.9,N
1499728195.6,286047090.3,N
1499728215.4,286047091.5,N
1499728235.2,286047091.8,N
1499728255.0,286047089.3,N
1499728256.0,286047089.3,N
1499728275.8,286047087.8,N
1499728295.6,286047088.2,N
1499728315.4,286047087.4,N
1499728335.3,286047087.1,N
1499728355.1,286047086.6,N
1499728375.8,286047086.1,N
1499728395.7,286047087.1,N
1499728415.5,286047086.5,N
1499728435.3,286047090.8,N
1499728455.2,286047088.7,N
1499728475.9,286047089.0,N
1499728495.7,286047088.6,N
1499728515.6,286047089.8,N
1499728535.4,286047091.3,N
1499728555.2,286047093.7,N
1499728575.1,286047095.3,N
1499728576.0,286047095.3,N
1499728595.8,286047095.6,N
1499728615.6,286047095.4,N
1499728635.5,286047095.2,N
1499728655.3,286047094.4,N
1499728675.1,286047093.2,N
1499728695.8,286047095.0,N
1499728715.7,286047092.6,N
1499728735.5,286047097.2,N
1499728755.3,286047096.1,N
1499728775.2,286047093.3,N
1499728795.0,286047095.4,N
1499728795.9,286047095.4,N
1499728815.7,286047096.6,N
1499728835.6,286047094.7,N
1499728855.4,286047094.6,N
1499728875.2,286047098.5,N
1499728895.1,286047096.1,N
1499728896.0,286047096.1,N
1499728915.8,286047094.6,N
1499728935.6,286047098.8,N
1499728955.5,286047096.9,N
1499728975.3,286047095.5,N
1499728995.1,286047095.3,N
1499729015.9,286047092.6,N
1499729035.7,286047095.6,N
1499729055.5,286047095.1,N
1499729075.3,286047094.3,N
1499729095.2,286047098.8,N
1499729115.0,286047096.2,N
1499729115.9,286047096.2,N
1499729135.7,286047098.8,N
1499729155.6,286047096.6,N
1499729175.4,286047095.8,N
1499729195.2,286047096.6,N
1499729215.1,286047096.0,N
1499729216.0,286047096.0,N
1499729235.8,286047096.9,N
1499729255.6,286047092.5,N
1499729275.5,286047092.7,N
1499729295.3,286047095.5,N
1499729315.1,286047095.4,N
1499729335.9,286047094.5,N
1499729355.7,286047094.3,N
1499729375.5,286047098.1,N
1499729395.4,286047098.4,N
1499729415.2,286047097.0,N
1499729435.0,286047095.7,N
1499729435.9,286047095.7,N
1499729455.8,286047096.7,N
1499729475.6,286047097.2,N
1499729495.4,286047094.4,N
1499729515.2,286047096.4,N
1499729535.1,286047098.7,N
1499729536.0,286047098.7,N
1499729555.8,286047096.5,N
1499729575.6,286047096.3,N
1499729595.5,286047100.0,N
1499729615.3,286047100.2,N
1499729635.1,286047097.5,N
1499729655.9,286047098.7,N
1499729675.7,286047097.7,N
1499729695.5,286047098.5,N
1499729715.4,286047096.1,N
1499729735.2,286047096.3,N
1499729755.0,286047096.1,N
1499729755.9,286047096.1,N
1499729775.8,286047094.2,N
1499729795.6,286047098.4,N
1499729815.4,286047097.8,N
1499729835.3,286047098.0,N
1499729855.1,286047097.3,N
1499729856.0,286047097.3,N
1499729875.8,286047097.8,N
1499729895.7,286047097.7,N
1499729915.5,286047095.8,N
1499729935.3,286047098.6,N
1499729955.2,286047099.7,N
1499729975.9,286047099.7,N
1499729995.7,286047101.5,N
1499730015.5,286047097.3,N
1499730035.4,286047100.0,N
1499730055.2,286047103.0,N
1499730075.0,286047102.2,N
1499730075.9,286047102.2,N
1499730095.8,286047104.8,N
1499730115.6,286047104.1,N
1499730135.4,286047104.8,N
1499730155.3,286047104.8,N
1499730175.1,286047103.1,N
1499730195.8,286047102.3,N
1499730215.7,286047103.5,N
1499730235.5,286047100.5,N
1499730255.3,286047103.3,N
1499730275.2,286047104.2,N
1499730295.9,286047104.0,N
1499730315.7,286047104.7,N
1499730335.6,286047100.6,N
1499730355.4,286047100.5,N
1499730375.2,286047103.1,N
1499730395.0,286047103.6,N
1499730396.0,286047103.6,N
1499730415.8,286047102.3,N
1499730435.6,286047102.8,N
1499730455.4,286047104.3,N
1499730475.3,286047104.5,N
1499730495.1,286047102.3,N
1499730515.8,286047102.5,N
1499730535.7,286047104.8,Y
1499730555.5,286047043.2,N
1499730575.3,286047041.6,N
1499730595.2,286047043.3,N
1499730615.9,286047047.5,N
1499730635.7,286047045.6,N
1499730655.6,286047041.4,N
1499730675.4,286047044.8,N
1499730695.2,286047047.2,N
1499730715.1,286047043.0,N
1499730716.0,286047043.0,N
1499730735.8,286047043.3,N
1499730755.6,286047045.5,N
1499730775.5,286047045.3,N
1499730795.3,286047045.8,N
1499730815.1,286047047.4,N
1499730835.8,286047046.4,N
1499730855.7,286047048.0,N
1499730875.5,286047048.1,N
1499730895.3,286047050.6,N
1499730915.2,286047047.8,N
1499730935.0,286047046.1,N
1499730935.9,286047046.1,N
1499730955.7,286047046.1,N
1499730975.6,286047048.4,N
1499730995.4,286047050.2,N
1499731015.2,286047047.9,N
1499731035.1,286047046.4,N
1499731036.0,286047046.4,N
1499731055.8,286047050.7,N
1499731075.6,286047049.6,N
1499731095.5,286047050.4,N
1499731115.3,286047050.3,N
1499731135.1,286047052.1,N
1499731155.9,286047051.4,N
1499731175.7,286047051.9,N
1499731195.5,286047049.4,N
